Time,TemperatureF,DewpointF,PressureIn,WindDirection,WindDirectionDegrees,WindSpeedMPH,WindSpeedGustMPH,Humidity,HourlyPrecipIn,Conditions,Clouds,dailyrainin,SoftwareType,DateUTC
2013-11-10 00:23:00,31.0,29.0,29.91,SW,229,0.0,0.0,93,0.00,,,0.00,,2013-11-10 05:23:00,
2013-11-10 00:34:00,31.0,29.0,29.91,SW,229,0.0,0.0,93,0.00,,,0.00,,2013-11-10 05:34:00,
2013-11-10 00:53:00,31.0,29.0,29.90,SW,229,0.0,0.0,93,0.00,,,0.00,,2013-11-10 05:53:00,
2013-11-10 01:02:00,31.0,29.0,29.90,SW,229,0.0,0.0,93,0.00,,,0.00,,2013-11-10 06:02:00,
2013-11-10 01:22:00,31.0,29.0,29.88,SW,229,0.0,0.0,94,0.00,,,0.00,,2013-11-10 06:22:00,
2013-11-10 01:52:00,31.0,29.0,29.87,SW,229,0.0,0.0,94,0.00,,,0.00,,2013-11-10 06:52:00,
2013-11-10 02:02:00,31.0,29.0,29.87,SW,229,0.0,0.0,94,0.00,,,0.00,,2013-11-10 07:02:00,
2013-11-10 02:22:00,31.0,29.0,29.86,SW,229,0.0,0.0,94,0.00,,,0.00,,2013-11-10 07:22:00,
2013-11-10 02:32:00,31.0,29.0,29.86,SW,229,0.0,0.0,94,0.00,,,0.00,,2013-11-10 07:32:00,
2013-11-10 02:43:00,31.0,29.0,29.86,SW,229,0.0,0.0,94,0.00,,,0.00,,2013-11-10 07:43:00,
2013-11-10 02:52:00,31.0,29.0,29.86,SW,229,0.0,0.0,94,0.00,,,0.00,,2013-11-10 07:52:00,
2013-11-10 03:12:00,31.0,29.0,29.83,SW,229,0.0,0.0,94,0.00,,,0.00,,2013-11-10 08:12:00,
2013-11-10 03:22:00,31.0,29.0,29.83,SW,229,0.0,0.0,94,0.00,,,0.00,,2013-11-10 08:22:00,
2013-11-10 03:42:00,31.0,30.0,29.83,SW,229,0.0,0.0,95,0.00,,,0.00,,2013-11-10 08:42:00,
2013-11-10 03:52:00,31.0,30.0,29.83,SW,229,0.0,0.0,95,0.00,,,0.00,,2013-11-10 08:52:00,
2013-11-10 04:02:00,31.0,30.0,29.83,SW,229,0.0,0.0,95,0.00,,,0.00,,2013-11-10 09:02:00,
2013-11-10 04:22:00,31.0,30.0,29.81,ESE,112,0.0,0.0,95,0.00,,,0.00,,2013-11-10 09:22:00,
2013-11-10 04:33:00,31.0,30.0,29.81,ESE,112,0.0,0.0,95,0.00,,,0.00,,2013-11-10 09:33:00,
2013-11-10 04:53:00,31.0,30.0,29.81,ESE,112,0.0,0.0,95,0.00,,,0.00,,2013-11-10 09:53:00,
2013-11-10 05:23:00,31.0,30.0,29.80,ESE,112,0.0,0.0,95,0.00,,,0.00,,2013-11-10 10:23:00,
2013-11-10 05:52:00,31.0,30.0,29.79,ESE,112,0.0,0.0,95,0.00,,,0.00,,2013-11-10 10:52:00,
2013-11-10 06:12:00,31.0,30.0,29.78,ESE,112,0.0,0.0,95,0.00,,,0.00,,2013-11-10 11:12:00,
2013-11-10 06:22:00,31.0,30.0,29.78,ESE,112,0.0,0.0,95,0.00,,,0.00,,2013-11-10 11:22:00,
2013-11-10 06:43:00,31.0,30.0,29.76,ESE,112,0.0,0.0,95,0.00,,,0.00,,2013-11-10 11:43:00,
2013-11-10 06:52:00,31.0,30.0,29.76,ESE,112,0.0,0.0,95,0.00,,,0.00,,2013-11-10 11:52:00,
2013-11-10 07:22:00,31.0,30.0,29.75,ESE,112,0.0,0.0,95,0.00,,,0.00,,2013-11-10 12:22:00,
2013-11-10 07:32:00,31.0,30.0,29.75,ESE,112,0.0,0.0,95,0.00,,,0.00,,2013-11-10 12:32:00,
2013-11-10 07:42:00,31.0,30.0,29.75,ESE,112,0.0,0.0,95,0.00,,,0.00,,2013-11-10 12:42:00,
2013-11-10 07:52:00,31.0,30.0,29.75,ESE,112,0.0,0.0,95,0.00,,,0.00,,2013-11-10 12:52:00,
2013-11-10 08:42:00,31.0,30.0,29.73,ESE,112,0.0,0.0,95,0.00,,,0.00,,2013-11-10 13:42:00,
2013-11-10 08:52:00,31.0,30.0,29.73,ESE,112,0.0,0.0,95,0.00,,,0.00,,2013-11-10 13:52:00,
2013-11-10 09:02:00,31.0,30.0,29.73,ESE,112,0.0,0.0,95,0.00,,,0.00,,2013-11-10 14:02:00,
2013-11-10 09:11:00,31.0,30.0,29.73,ESE,112,0.0,0.0,95,0.00,,,0.00,,2013-11-10 14:11:00,
2013-11-10 10:10:00,32.0,30.0,29.69,ESE,112,0.0,0.0,94,0.00,,,0.00,,2013-11-10 15:10:00,
2013-11-10 10:43:00,32.0,30.0,29.69,ESE,112,0.0,0.0,94,0.00,,,0.00,,2013-11-10 15:43:00,
2013-11-10 10:54:00,32.0,30.0,29.69,ESE,112,0.0,0.0,94,0.00,,,0.00,,2013-11-10 15:54:00,
2013-11-10 11:03:00,32.0,30.0,29.69,ESE,112,0.0,0.0,94,0.00,,,0.00,,2013-11-10 16:03:00,
2013-11-10 12:12:00,36.0,34.0,29.62,SSW,199,0.0,2.0,93,0.05,,,0.05,,2013-11-10 17:12:00,
2013-11-10 12:23:00,36.0,34.0,29.62,SSW,199,0.0,2.0,93,0.05,,,0.05,,2013-11-10 17:23:00,
2013-11-10 12:43:00,36.0,34.0,29.61,SSW,206,0.0,0.0,93,0.03,,,0.07,,2013-11-10 17:43:00,
2013-11-10 12:52:00,36.0,34.0,29.61,SSW,206,0.0,0.0,93,0.03,,,0.07,,2013-11-10 17:52:00,
2013-11-10 13:03:00,36.0,34.0,29.61,SSW,206,0.0,0.0,93,0.03,,,0.07,,2013-11-10 18:03:00,
2013-11-10 13:13:00,36.0,34.0,29.61,SSW,206,0.0,0.0,93,0.03,,,0.07,,2013-11-10 18:13:00,
2013-11-10 14:11:00,37.0,35.0,29.58,SSW,193,0.0,0.0,92,0.00,,,0.08,,2013-11-10 19:11:00,
2013-11-10 14:22:00,37.0,35.0,29.58,SSW,193,0.0,0.0,92,0.00,,,0.08,,2013-11-10 19:22:00,
2013-11-10 14:42:00,37.0,35.0,29.58,SSW,195,0.0,0.0,93,0.00,,,0.08,,2013-11-10 19:42:00,
2013-11-10 14:52:00,37.0,35.0,29.58,SSW,195,0.0,0.0,93,0.00,,,0.08,,2013-11-10 19:52:00,
2013-11-10 15:02:00,37.0,35.0,29.58,SSW,195,0.0,0.0,93,0.00,,,0.08,,2013-11-10 20:02:00,
2013-11-10 15:11:00,37.0,35.0,29.58,SSW,195,0.0,0.0,93,0.00,,,0.08,,2013-11-10 20:11:00,
2013-11-10 17:43:00,35.0,34.0,29.59,WSW,258,0.0,0.0,95,0.00,,,0.08,,2013-11-10 22:43:00,
2013-11-10 17:54:00,35.0,34.0,29.59,WSW,258,0.0,0.0,95,0.00,,,0.08,,2013-11-10 22:54:00,
2013-11-10 18:12:00,35.0,34.0,29.59,WSW,258,0.0,0.0,95,0.00,,,0.08,,2013-11-10 23:12:00,
2013-11-10 18:22:00,35.0,34.0,29.59,WSW,258,0.0,0.0,95,0.00,,,0.08,,2013-11-10 23:22:00,
2013-11-10 18:53:00,35.0,34.0,29.59,WSW,258,0.0,0.0,96,0.00,,,0.08,,2013-11-10 23:53:00,
2013-11-10 19:02:00,35.0,34.0,29.59,WSW,258,0.0,0.0,96,0.00,,,0.08,,2013-11-11 00:02:00,
2013-11-10 19:11:00,35.0,34.0,29.59,WSW,258,0.0,0.0,96,0.00,,,0.08,,2013-11-11 00:11:00,
2013-11-10 19:22:00,35.0,34.0,29.59,WSW,258,0.0,0.0,96,0.00,,,0.08,,2013-11-11 00:22:00,
2013-11-10 19:52:00,33.0,32.0,29.60,West,260,0.0,0.0,96,0.00,,,0.08,,2013-11-11 00:52:00,
2013-11-10 20:11:00,33.0,32.0,29.60,West,260,0.0,0.0,96,0.00,,,0.08,,2013-11-11 01:11:00,
2013-11-10 20:22:00,33.0,32.0,29.60,West,260,0.0,0.0,96,0.00,,,0.08,,2013-11-11 01:22:00,
2013-11-10 20:42:00,32.0,31.0,29.60,West,260,0.0,0.0,96,0.00,,,0.08,,2013-11-11 01:42:00,
2013-11-10 20:52:00,32.0,31.0,29.60,West,260,0.0,0.0,96,0.00,,,0.08,,2013-11-11 01:52:00,
2013-11-10 21:11:00,33.0,32.0,29.60,West,260,0.0,0.0,96,0.00,,,0.08,,2013-11-11 02:11:00,
2013-11-10 21:22:00,33.0,32.0,29.60,West,260,0.0,0.0,96,0.00,,,0.08,,2013-11-11 02:22:00,
2013-11-10 21:32:00,33.0,32.0,29.60,West,260,0.0,0.0,96,0.00,,,0.08,,2013-11-11 02:32:00,
2013-11-10 21:53:00,32.0,31.0,29.60,West,260,0.0,0.0,96,0.00,,,0.08,,2013-11-11 02:53:00,
2013-11-10 22:22:00,32.0,31.0,29.60,West,260,0.0,0.0,96,0.00,,,0.08,,2013-11-11 03:22:00,
2013-11-10 22:34:00,32.0,31.0,29.60,West,260,0.0,0.0,96,0.00,,,0.08,,2013-11-11 03:34:00,
2013-11-10 23:24:00,31.0,30.0,29.60,West,260,0.0,0.0,96,0.00,,,0.08,,2013-11-11 04:24:00,
2013-11-10 23:43:00,32.0,31.0,29.60,WSW,247,1.0,3.0,97,0.00,,,0.08,,2013-11-11 04:43:00,
2013-11-10 23:53:00,32.0,31.0,29.60,WSW,247,1.0,3.0,97,0.00,,,0.08,,2013-11-11 04:53:00,